Weather in Vladimirovka

Russia / Novosibirsk Oblast     54°57′45″N   83°59′47″E
temp.,
°C
wind,
m/s
gust,
m/s
humid.,
%
clouds,
%
prec.,
mm/h
press.,
hPa
HPBL,
m
8 march, mon
mon801:00−13s348188 0.0 102233
04:00−11sse498493 0.0 1020197
07:00−6s7149197 0.0 1017382
10:00−4s91685100 0.0 1013521
13:00−2ssw91584100 0.0 1011619
16:000ssw101681100 0.0 1008744
19:00−2sw101882100 0.0 1008854
22:00−2sw91595100 0.9 1010938
9 march, tue
tue901:00−8w7129197 1.5 1014477
04:00−14wsw5119688 0.0 1019223
07:00−14sw6129494 0.0 1023272
10:00−14sw7128898 0.0 1025385
13:00−9sw7128180 0.0 1026585
16:00−7sw7128241 0.0 1024682
19:00−9ssw5128865 0.0 1024399
22:00−11ssw51489100 0.0 1023299
10 march, wed
wed1001:00−12ssw61492100 0.0 1021287
04:00−13ssw5129316 0.0 1020207
07:00−13ssw4109658 0.0 1019154
10:00−9ssw5109599 0.0 1018278
13:00−4sw5991100 0.0 1017543
16:00−2ssw589199 0.0 1015588
19:00−4s3791100 0.0 1011149
22:00−1sse51491100 0.0 1007558
11 march, thu
thu1101:00+1s92074100 0.0 1002738
04:000ssw111897100 1.4 998962
07:00−1sw131982100 2.5 10021077
10:00−9sw111989100 0.1 1009784
13:00−7wsw91588100 0.1 1013794
16:00−5sw91389100 0.1 10141001
19:00−7sw81389100 0.2 1016766
22:00−10ssw6149193 0.0 1018381
12 march, fri
fri1201:00−9s5138896 0.0 1016375
04:00−6ssw91693100 1.1 10121051
07:00−10sw11198783 1.4 1014706
10:00−12sw91589100 0.1 1019631
13:00−13wsw8128798 0.2 1022824
16:00−13wsw81185100 0.1 1023876
19:00−16wsw51090100 0.1 1025342
22:00−20sw499722 0.0 1028140